Meteopurmerend
purmerend
Purmerend - Baaienwijk



My webcam  My webcam


Onweer radar Meer informatie blitzortung!


Regen radar Meer informatie rain snow radar


Bezoek onze andere website:

CandyAppleRed WebdesignWebdesign Purmerend Candy Apple Red

MeteopurmerendBlog

Template documentation
and downloads



We konden geen weer-waarchuwingen ophalen. Ga rechtstreeks naar de Meteoalarm site : www.meteoalarm.eu en controleer daar .

15 daagse weersverwachting Duisburg (DE)

  • Overzicht
  • Per uur
  • 15 dagen
  • Extra
  • Vergelijk
  • Kaarten
  • Dagkaart
  • Meer »
  • Info
  • Statistieken
  • Directe link
    Temp 6h Neerslag Wind  
 05:19     21:53    Daglengte: 16:34 Vandaag
08:00
18°
 
2
14:00
20°
 
2
20:00
20°
 
1
 05:20     21:53    Daglengte: 16:33 Morgen
02:00
16°
23.7 mm
2
08:00
17°
13.8 mm
2
14:00
19°
 
3
20:00
20°
 
2
 05:21     21:53    Daglengte: 16:32 Dinsdag 28 Jun
02:00
15°
11.8 mm
2
08:00
16°
 
1
14:00
24°
 
1
20:00
24°
 
3
 05:21     21:53    Daglengte: 16:32 Woensdag 29 Jun
02:00
19°
 
3
Locatie info
Region: Nordrhein-Westfalen
Latitude: 51.4315°N
Longitude: 6.7636°E
38 masl
Postcode: 47051
Temp/Neerslag /Baro Onweer/Dauwpunt
    Temp Baro 1h Neerslag Dauwpunt Wind UV Bewolking  
 05:19     21:53    Daglengte: 16:34 Vandaag
05:00
17°
1012.8 hPa
48%
15.5°
2
Windvlaag: 0.3 m/s
42%
06:00
17°
1013.4 hPa
14%
15.0°
2
Windvlaag: 1.8 m/s
60%
07:00
17°
1013.9 hPa
15%
13.9°
1
Windvlaag: 1.7 m/s
70%
08:00
18°
1014.3 hPa
53%
12.8°
2
Windvlaag: 2.3 m/s
71%
09:00
19°
1014.5 hPa
14%
12.7°
1
Windvlaag: 2 m/s
52%
10:00
20°
1014.8 hPa
22%
12.5°
3
Windvlaag: 2.3 m/s
84%
11:00
20°
1015.2 hPa
68%
12.2°
3
Windvlaag: 2.2 m/s
74%
12:00
20°
1015.5 hPa
69%
12.2°
3
Windvlaag: 1.2 m/s
83%
13:00
20°
1015.5 hPa
80%
11.9°
2
Windvlaag: 1.3 m/s
85%
14:00
20°
1015.5 hPa
43%
13.1°
2
Windvlaag: -0.7 m/s
84%
15:00
20°
1015.5 hPa
67%
12.0°
3
Windvlaag: -0.8 m/s
85%
16:00
20°
1015.7 hPa
67%
10.8°
3
Windvlaag: -0.7 m/s
84%
17:00
20°
1015.4 hPa
77%
9.6°
1
Windvlaag: 0 m/s
78%
18:00
20°
1015.0 hPa
16%
10.0°
2
Windvlaag: -1.8 m/s
64%
19:00
20°
1014.7 hPa
67%
9.8°
2
Windvlaag: -1.6 m/s
79%
20:00
20°
1014.9 hPa
77%
10.7°
1
Windvlaag: -1.7 m/s
75%
21:00
19°
1014.7 hPa
21%
11.2°
2
Windvlaag: -2.1 m/s
66%
22:00
19°
1014.9 hPa
78%
11.4°
2
Windvlaag: -2.2 m/s
86%
23:00
18°
1015.0 hPa 3.8 mm
82%
11.4°
2
Windvlaag: -0.5 m/s
86%
 05:20     21:53    Daglengte: 16:33 Morgen
00:00
17°
1015.4 hPa 5.9 mm
82%
12.3°
2
Windvlaag: -1.4 m/s
86%
01:00
17°
1015.1 hPa 6.6 mm
82%
12.8°
2
Windvlaag: -1.3 m/s
86%
02:00
16°
1014.8 hPa 7.5 mm
82%
13.7°
2
Windvlaag: -0.9 m/s
86%
03:00
16°
1014.3 hPa 6.8 mm
82%
13.9°
2
Windvlaag: -0.8 m/s
82%
04:00
16°
1014.4 hPa 6.9 mm
73%
13.9°
2
Windvlaag: -0.5 m/s
80%
05:00
16°
1014.1 hPa
30%
14.2°
2
Windvlaag: -0.2 m/s
86%
06:00
16°
1014.1 hPa
17%
14.6°
2
Windvlaag: -0.2 m/s
84%
07:00
16°
1014.1 hPa
14%
14.7°
2
Windvlaag: -0.1 m/s
80%
08:00
17°
1014.2 hPa
14%
13.8°
2
Windvlaag: 0.4 m/s
56%
09:00
17°
1014.4 hPa
15%
13.5°
3
Windvlaag: 0.9 m/s
65%
10:00
17°
1014.8 hPa
14%
13.5°
2
Windvlaag: 1 m/s
65%
11:00
18°
1015.2 hPa
14%
14.2°
3
Windvlaag: 1.1 m/s
67%
12:00
18°
1015.6 hPa
14%
14.7°
2
Windvlaag: 2.4 m/s
51%
13:00
19°
1015.9 hPa
14%
14.3°
2
Windvlaag: 3 m/s
58%
14:00
19°
1016.0 hPa
17%
13.6°
3
Windvlaag: 3.6 m/s
86%
15:00
20°
1016.2 hPa
73%
11.9°
4
Windvlaag: 3.3 m/s
85%
16:00
20°
1016.4 hPa
31%
11.0°
3
Windvlaag: 3 m/s
86%
17:00
20°
1016.6 hPa
26%
11.6°
2
Windvlaag: 3.2 m/s
82%
18:00
21°
1016.8 hPa
17%
13.1°
3
Windvlaag: 4 m/s
81%
19:00
20°
1017.2 hPa
14%
12.9°
2
Windvlaag: 3.1 m/s
65%
20:00
20°
1017.8 hPa
14%
12.3°
2
Windvlaag: -0.5 m/s
24%
21:00
19°
1018.4 hPa
14%
12.7°
2
Windvlaag: -0.3 m/s
23%
22:00
18°
1018.9 hPa
14%
13.1°
1
Windvlaag: 1.5 m/s
10%
23:00
17°
1019.6 hPa 11.8 mm
21%
12.5°
1
Windvlaag: 2.4 m/s
11%
 05:21     21:53    Daglengte: 16:32 Dinsdag 28 Jun
00:00
16°
1020.1 hPa
21%
12.7°
2
Windvlaag: 1 m/s
4%
01:00
15°
1020.2 hPa
21%
12.4°
2
Windvlaag: 1.7 m/s
11%
02:00
15°
1020.2 hPa
21%
12.0°
2
Windvlaag: 1.8 m/s
27%
03:00
15°
1020.2 hPa
21%
11.3°
1
Windvlaag: 2 m/s
21%
04:00
14°
1020.5 hPa
21%
11.2°
1
Windvlaag: 2.6 m/s
10%
05:00
14°
1020.8 hPa
21%
11.1°
1
Windvlaag: 2.8 m/s
12%
06:00
14°
1020.9 hPa
21%
11.3°
2
Windvlaag: 3.1 m/s
17%
07:00
15°
1021.3 hPa
21%
10.7°
1
Windvlaag: 2.8 m/s
21%
08:00
16°
1021.4 hPa
21%
10.1°
1
Windvlaag: 4.5 m/s
11%
09:00
18°
1021.3 hPa
21%
8.3°
1
Windvlaag: 4.3 m/s
10%
10:00
19°
1021.1 hPa
21%
6.8°
1
Windvlaag: 3.8 m/s
8%
11:00
21°
1021.0 hPa
21%
7.0°
1
Windvlaag: 3.3 m/s
6%
12:00
22°
1020.7 hPa
21%
7.7°
1
Windvlaag: 4.2 m/s
3%
13:00
23°
1020.1 hPa
21%
8.2°
1
Windvlaag: 3.9 m/s
0%
14:00
24°
1019.2 hPa
21%
7.8°
1
Windvlaag: 4.3 m/s
31%
15:00
24°
1018.5 hPa
21%
7.9°
2
Windvlaag: 4.7 m/s
1%
16:00
25°
1018.1 hPa
21%
8.0°
2
Windvlaag: 4.5 m/s
2%
17:00
25°
1017.7 hPa
21%
8.2°
2
Windvlaag: 4.1 m/s
11%
18:00
25°
1017.2 hPa
21%
7.7°
2
Windvlaag: 3.5 m/s
12%
19:00
25°
1016.8 hPa
21%
7.9°
2
Windvlaag: 3.3 m/s
13%
20:00
24°
1016.5 hPa
21%
8.3°
3
Windvlaag: 3.9 m/s
76%
21:00
24°
1016.3 hPa
25%
9.8°
2
Windvlaag: 4.1 m/s
76%
22:00
22°
1016.2 hPa
21%
9.2°
2
Windvlaag: 6.2 m/s
45%
23:00
21°
1016.1 hPa
21%
9.2°
2
Windvlaag: 6 m/s
75%
 05:21     21:53    Daglengte: 16:32 Woensdag 29 Jun
00:00
20°
1015.9 hPa
21%
10.4°
3
Windvlaag: 6 m/s
82%
01:00
19°
1015.5 hPa
21%
8.7°
3
Windvlaag: 7.7 m/s
66%
02:00
19°
1015.2 hPa
21%
8.0°
3
Windvlaag: 8.2 m/s
79%
Temp/Neerslag /Baro Onweer/Dauwpunt
    Temp Baro Neerslag Dauwpunt Wind Bewolking  
 05:19     21:53    Daglengte: 16:34 Vandaag
05:00
17°
1012.8 hPa   15.5°
2
42%
08:00
18°
1014.3 hPa   12.8°
2
71%
11:00
20°
1015.2 hPa   12.2°
3
74%
14:00
20°
1015.5 hPa   13.1°
2
84%
17:00
20°
1015.4 hPa   9.6°
1
78%
20:00
20°
1014.9 hPa   10.7°
1
75%
23:00
18°
1015.0 hPa 3.8 mm 11.4°
2
86%
 05:20     21:53    Daglengte: 16:33 Morgen
02:00
16°
1014.8 hPa 20.0 mm 13.7°
2
86%
05:00
16°
1014.1 hPa 13.8 mm 14.2°
2
86%
08:00
17°
1014.2 hPa   13.8°
2
56%
11:00
18°
1015.2 hPa   14.2°
3
67%
14:00
19°
1016.0 hPa   13.6°
3
86%
17:00
20°
1016.6 hPa   11.6°
2
82%
20:00
20°
1017.8 hPa   12.3°
2
24%
23:00
17°
1019.6 hPa 11.8 mm 12.5°
1
11%
 05:21     21:53    Daglengte: 16:32 Dinsdag 28 Jun
02:00
15°
1020.2 hPa   12.0°
2
27%
05:00
14°
1020.8 hPa   11.1°
1
12%
08:00
16°
1021.4 hPa   10.1°
1
11%
11:00
21°
1021.0 hPa   7.0°
1
6%
14:00
24°
1019.2 hPa   7.8°
1
31%
17:00
25°
1017.7 hPa   8.2°
2
11%
20:00
24°
1016.5 hPa   8.3°
3
76%
23:00
21°
1016.1 hPa   9.2°
2
75%
 05:21     21:53    Daglengte: 16:32 Woensdag 29 Jun
02:00
19°
1015.2 hPa   8.0°
3
79%
05:00
16°
1016.3 hPa 17.8 mm 12.4°
2
1%
08:00
20°
1016.3 hPa 17.8 mm 12.8°
2
0%
11:00
25°
1015.8 hPa 17.8 mm 11.8°
1
0%
14:00
28°
Voelt als: 27.6°
1014.8 hPa 17.8 mm 11.3°
2
0%
17:00
29°
Voelt als: 27.9°
1013.8 hPa 17.8 mm 11.6°
1
1%
20:00
26°
1013.2 hPa 17.8 mm 16.5°
2
1%
23:00
23°
1013.5 hPa 17.8 mm 16.0°
2
1%
 05:22     21:53    Daglengte: 16:31 Donderdag 30 Jun
02:00
20°
1013.1 hPa 17.8 mm 15.3°
2
1%
05:00
19°
1012.4 hPa 17.8 mm 15.8°
2
0%
08:00
22°
1012.2 hPa 17.8 mm 16.8°
2
0%
11:00
24°
1011.9 hPa 18.1 mm 18.4°
2
1%
14:00
31°
Voelt als: 29.7°
1010.2 hPa 18.1 mm 12.9°
2
1%
17:00
31°
Voelt als: 29.9°
1008.5 hPa 18.1 mm 12.7°
3
0%
20:00
29°
1007.0 hPa 18.1 mm 15.9°
2
0%
23:00
18°
1009.6 hPa 19.5 mm 17.6°
6
0%
 05:22     21:53    Daglengte: 16:31 Vrijdag 01 Jul
02:00
18°
1009.2 hPa 21.3 mm 17.8°
3
1%
05:00
17°
1009.6 hPa 23.4 mm 16.6°
2
1%
08:00
16°
1012.1 hPa 25.3 mm 15.8°
5
1%
11:00
17°
1014.5 hPa 25.6 mm 13.2°
5
1%
14:00
21°
1014.9 hPa 25.7 mm 8.9°
4
1%
17:00
21°
1015.2 hPa 25.7 mm 9.6°
4
1%
20:00
20°
1016.2 hPa 25.7 mm 10.2°
3
1%
23:00
16°
1017.6 hPa 25.7 mm 10.0°
2
0%
 05:23     21:52    Daglengte: 16:29 Zaterdag 02 Jul
02:00
15°
1018.8 hPa 25.7 mm 8.6°
2
0%
05:00
14°
1019.8 hPa 25.7 mm 8.7°
4
0%
08:00
16°
1020.5 hPa 25.7 mm 9.6°
4
0%
11:00
20°
1020.3 hPa 25.7 mm 8.3°
5
0%
14:00
23°
1019.8 hPa 25.7 mm 8.7°
5
0%
17:00
24°
1019.2 hPa 25.7 mm 9.1°
4
1%
20:00
21°
1019.0 hPa 25.7 mm 11.3°
2
1%
23:00
18°
1019.4 hPa 25.7 mm 11.6°
1
1%
 05:24     21:52    Daglengte: 16:28 Zondag 03 Jul
02:00
18°
1018.8 hPa 51.4 mm 11.1°
1
1%
08:00
17°
1018.5 hPa 51.4 mm 11.3°
3
1%
14:00
24°
1017.8 hPa 51.4 mm 11.4°
5
0%
20:00
21°
1017.8 hPa 51.5 mm 10.2°
4
1%
 05:25     21:51    Daglengte: 16:26 Maandag 04 Jul
02:00
14°
1019.5 hPa 51.5 mm 10.9°
2
0%
08:00
16°
1020.0 hPa 51.5 mm 9.8°
3
0%
14:00
21°
1020.7 hPa 51.9 mm 9.8°
4
0%
20:00
19°
1021.7 hPa 52.5 mm 9.9°
4
1%
 05:26     21:51    Daglengte: 16:25 Dinsdag 05 Jul
02:00
12°
1024.1 hPa 52.5 mm 10.6°
1
0%
08:00
15°
1024.7 hPa 52.5 mm 10.3°
1
0%
14:00
22°
1023.9 hPa 52.5 mm 11.0°
3
1%
20:00
20°
1023.1 hPa 52.6 mm 14.2°
3
1%
 05:26     21:50    Daglengte: 16:24 Woensdag 06 Jul
02:00
16°
1019.6 hPa 0.1 mm 11.6°
1
40%
08:00
17°
1019.1 hPa 0.4 mm 12.5°
0
47%
14:00
25°
1018.2 hPa 0.3 mm 12.9°
1
50%
20:00
23°
1017.5 hPa 0.5 mm 14.0°
1
57%
 05:27     21:50    Daglengte: 16:23 Donderdag 07 Jul
02:00
17°
1018.3 hPa 0.6 mm 12.5°
1
52%
08:00
17°
1018.4 hPa 0.2 mm 12.7°
2
52%
14:00
24°
1018.1 hPa 0.6 mm 13.5°
3
51%
20:00
22°
1017.7 hPa 0.7 mm 14.1°
2
51%
 05:28     21:49    Daglengte: 16:21 Vrijdag 08 Jul
02:00
16°
1018.7 hPa 0.3 mm 12.4°
1
43%
08:00
17°
1018.6 hPa 0.4 mm 12.7°
1
46%
14:00
24°
1017.7 hPa 0.3 mm 12.2°
3
48%
20:00
22°
1017.3 hPa 0.8 mm 13.4°
2
53%
 05:29     21:48    Daglengte: 16:19 Zaterdag 09 Jul
02:00
16°
1018.3 hPa 0.3 mm 11.8°
1
40%
08:00
17°
1018.0 hPa 0.1 mm 12.0°
2
44%
14:00
24°
1016.8 hPa 0.4 mm 12.2°
3
52%
20:00
22°
1016.0 hPa 0.5 mm 12.9°
2
58%
 05:30     21:48    Daglengte: 16:18 Zondag 10 Jul
02:00
16°
1016.5 hPa 0.6 mm 11.8°
1
51%
08:00
17°
1016.2 hPa 0.6 mm 12.3°
2
54%
14:00
23°
1015.9 hPa 0.7 mm 12.3°
3
58%
20:00
21°
1016.2 hPa 0.8 mm 12.8°
3
54%
 05:31     21:47    Daglengte: 16:16 Maandag 11 Jul
02:00
15°
1017.6 hPa 0.2 mm 11.0°
1
44%
  CAPE Lifted Index Hail Supercell Tornado SRH 3km CL BTM PRES CL TOP PRES Swiss DWD icon SMHI TS
 05:19     21:53    Daglengte: 16:34 Vandaag
05:00 0 J/kg 0.9 K 0 % 0 % 0 % 0 m²/s² 0 0 1.29 3
06:00 0 J/kg 1.2 K 0 % 0 % 0 % 0 m²/s² 0 0 1.38 3
07:00 0 J/kg 1.3 K 0 % 0 % 0 % 0 m²/s² 0 0 2.65 3
08:00 3 J/kg 1.4 K 0 % 0 % 0 % 0 m²/s² 0 0 2.45 3
09:00 11 J/kg 0.9 K 0 % 0 % 0 % 0 m²/s² 0 0 1.89 3
10:00 50 J/kg 1.0 K 0 % 0 % 0 % 0 m²/s² 0 0 1.66 3
11:00 97 J/kg 1.0 K 0 % 0 % 0 % 0 m²/s² 0 0 1.09 3
12:00 59 J/kg 1.2 K 0 % 0 % 0 % 0 m²/s² 0 0 1.23 3
13:00 18 J/kg 1.5 K 0 % 0 % 0 % 0 m²/s² 0 0 2.79 3
14:00 38 J/kg 1.3 K 0 % 0 % 0 % 0 m²/s² 0 0 2.29 3
15:00 19 J/kg 1.1 K 0 % 0 % 0 % 0 m²/s² 0 0 2.57 3
16:00 8 J/kg 1.0 K 0 % 0 % 0 % 0 m²/s² 0 0 2.77 3
17:00 23 J/kg 0.5 K 0 % 0 % 0 % 0 m²/s² 0 0 2.09 3
18:00 26 J/kg 0.3 K 0 % 0 % 0 % 0 m²/s² 0 0 1.35 3
19:00 49 J/kg 0.4 K 0 % 0 % 0 % 0 m²/s² 0 0 0.97 3
20:00 88 J/kg 0.4 K 0 % 0 % 0 % 0 m²/s² 0 0 0.58 61
21:00 83 J/kg 0.1 K 0 % 0 % 0 % 0 m²/s² 0 0 0.22 3
22:00 32 J/kg 0.1 K 0 % 0 % 0 % 0 m²/s² 0 0 0.13 3
23:00 0 J/kg 2.0 K 0 % 0 % 0 % 0 m²/s² 0 0 2 61
 05:20     21:53    Daglengte: 16:33 Morgen
00:00 0 J/kg 1.5 K 0 % 0 % 0 % 0 m²/s² 0 0 1.5 80
01:00 0 J/kg 2.1 K 0 % 0 % 0 % 0 m²/s² 0 0 2.1 61
02:00 0 J/kg 1.3 K 0 % 0 % 0 % 0 m²/s² 0 0 1.39 61
03:00 0 J/kg 0.9 K 0 % 0 % 0 % 0 m²/s² 0 0 1.44 3
04:00 5 J/kg 2.9 K 0 % 0 % 0 % 0 m²/s² 0 0 4.4 3
05:00 0 J/kg 2.8 K 0 % 0 % 0 % 0 m²/s² 0 0 4.72 3
06:00 0 J/kg 2.1 K 0 % 0 % 0 % 0 m²/s² 0 0 4.47 3
07:00 0 J/kg 2.3 K 0 % 0 % 0 % 0 m²/s² 0 0 5.36 3
08:00 5 J/kg 2.4 K 0 % 0 % 0 % 0 m²/s² 0 0 5.73 3
09:00 18 J/kg 2.5 K 0 % 0 % 0 % 0 m²/s² 0 0 5.65 3
10:00 35 J/kg 1.6 K 0 % 0 % 0 % 0 m²/s² 0 0 4.75 3
11:00 81 J/kg 0.8 K 0 % 0 % 0 % 0 m²/s² 0 0 3.53 3
12:00 159 J/kg 0.6 K 0 % 0 % 0 % 0 m²/s² 0 0 2.94 3
13:00 238 J/kg 0.3 K 0 % 0 % 0 % 0 m²/s² 0 0 1.65 3
14:00 227 J/kg 0.4 K 0 % 0 % 0 % 0 m²/s² 0 0 0.97 3
15:00 163 J/kg 0.6 K 0 % 0 % 0 % 0 m²/s² 0 0 1.2 3
16:00 88 J/kg 1.3 K 0 % 0 % 0 % 0 m²/s² 0 0 1.87 3
17:00 95 J/kg 1.1 K 0 % 0 % 0 % 0 m²/s² 0 0 2.48 3
18:00 45 J/kg 1.2 K 0 % 0 % 0 % 0 m²/s² 0 0 2.79 3
19:00 0 J/kg 1.1 K 0 % 0 % 0 % 0 m²/s² 0 0 2.12 3
20:00 0 J/kg 2.0 K 0 % 0 % 0 % 0 m²/s² 0 0 3.41 3
21:00 0 J/kg 2.4 K 0 % 0 % 0 % 0 m²/s² 0 0 6.66 2
22:00 0 J/kg 2.6 K 0 % 0 % 0 % 0 m²/s² 0 0 7.07 2
23:00 0 J/kg 2.8 K 0 % 0 % 0 % 0 m²/s² 0 0 7.06 2
 05:21     21:53    Daglengte: 16:32 Dinsdag 28 Jun
00:00 0 J/kg 2.6 K 0 % 0 % 0 % 0 m²/s² 0 0 6.95 2
01:00 0 J/kg 3.7 K 0 % 0 % 0 % 0 m²/s² 0 0 7.72 1
02:00 5 J/kg 5.6 K 0 % 0 % 0 % 0 m²/s² 0 0 9.95 1
03:00 0 J/kg 6.8 K 0 % 0 % 0 % 0 m²/s² 0 0 12.8 1
04:00 0 J/kg 7.0 K 0 % 0 % 0 % 0 m²/s² 0 0 14.02 0
05:00 0 J/kg 7.1 K 0 % 0 % 0 % 0 m²/s² 0 0 14.99 0
06:00 0 J/kg 6.8 K 0 % 0 % 0 % 0 m²/s² 0 0 15.38 0
07:00 0 J/kg 8.1 K 0 % 0 % 0 % 0 m²/s² 0 0 16.71 0
08:00 0 J/kg 9.3 K 0 % 0 % 0 % 0 m²/s² 0 0 17.61 0
09:00 0 J/kg 9.5 K 0 % 0 % 0 % 0 m²/s² 0 0 17.24 0
10:00 0 J/kg 9.7 K 0 % 0 % 0 % 0 m²/s² 0 0 17.2 0
11:00 0 J/kg 10.0 K 0 % 0 % 0 % 0 m²/s² 0 0 17.02 0
12:00 0 J/kg 10.0 K 0 % 0 % 0 % 0 m²/s² 0 0 16.81 2
13:00 0 J/kg 9.3 K 0 % 0 % 0 % 0 m²/s² 0 0 15.57 2
14:00 0 J/kg 9.0 K 0 % 0 % 0 % 0 m²/s² 0 0 14.94 3
15:00 0 J/kg 8.5 K 0 % 0 % 0 % 0 m²/s² 0 0 14.11 2
16:00 0 J/kg 7.5 K 0 % 0 % 0 % 0 m²/s² 0 0 12.99 2
17:00 0 J/kg 6.9 K 0 % 0 % 0 % 0 m²/s² 0 0 13.02 2
18:00 0 J/kg 6.9 K 0 % 0 % 0 % 0 m²/s² 0 0 13.8 2
19:00 0 J/kg 6.6 K 0 % 0 % 0 % 0 m²/s² 0 0 13.71 2
20:00 0 J/kg 5.6 K 0 % 0 % 0 % 0 m²/s² 0 0 12.71 3
21:00 0 J/kg 5.3 K 0 % 0 % 0 % 0 m²/s² 0 0 12.65 3
22:00 0 J/kg 6.1 K 0 % 0 % 0 % 0 m²/s² 0 0 13.21 3
23:00 0 J/kg 6.2 K 0 % 0 % 0 % 0 m²/s² 0 0 13.13 3
 05:21     21:53    Daglengte: 16:32 Woensdag 29 Jun
00:00 0 J/kg 6.3 K 0 % 0 % 0 % 0 m²/s² 0 0 13.26 3
01:00 0 J/kg 6.3 K 0 % 0 % 0 % 0 m²/s² 0 0 13.02 3
02:00 0 J/kg 6.4 K 0 % 0 % 0 % 0 m²/s² 0 0 13.12 3
Temp Baro Wind Neerslag
  EWN Forecast EWN WRFDA DWD ICON FMI HIRLAM MET Norway GFS
 05:19     21:53    Daglengte: 16:34 Vandaag
05:00 17.1° 1012.8 hPa 1.8 m/s 0.0 mm 16.4° 1012.0 hPa 1.7 m/s 14.1 mm 17.2° 1013.0 hPa 1.8 m/s -1.8 mm 16.7° 1012.4 hPa 2.2 m/s 0.0 mm 16.7° 1013.3 hPa 2.0 m/s
08:00 17.6° 1014.3 hPa 1.6 m/s 0.0 mm 18.5° 1012.9 hPa 2.4 m/s 43.5 mm 18.3° 1014.8 hPa 2.2 m/s 0.0 mm 17.4° 1014.1 hPa 0.7 m/s 0.0 mm 17.4° 1014.9 hPa 2.6 m/s
11:00 19.9° 1015.2 hPa 2.6 m/s 0.0 mm 20.8° 1014.0 hPa 3.3 m/s 43.5 mm 19.6° 1016.0 hPa 2.6 m/s 0.0 mm 21.2° 1015.3 hPa 3.0 m/s 0.0 mm 20.7° 1016.1 hPa 3.4 m/s
14:00 20.4° 1015.5 hPa 2.3 m/s 0.0 mm 21.9° 1014.5 hPa 2.5 m/s 47.1 mm 19.1° 1015.8 hPa 1.5 m/s 0.0 mm 20.9° 1015.6 hPa 3.2 m/s 0.0 mm 16.9° 1016.7 hPa 1.7 m/s
17:00 19.9° 1015.4 hPa 1.3 m/s 0.0 mm 24.1° 1013.7 hPa 2.1 m/s 47.3 mm 19.8° 1015.7 hPa 0.7 m/s 0.0 mm 20.8° 1015.6 hPa 3.4 m/s 0.0 mm 16.6° 1017.1 hPa 2.1 m/s
20:00 19.6° 1014.9 hPa 1.3 m/s 0.0 mm 24.3° 1012.9 hPa 0.5 m/s 47.3 mm 19.9° 1015.2 hPa 0.4 m/s 0.1 mm 19.5° 1015.3 hPa 2.4 m/s 0.0 mm 15.8° 1015.8 hPa 1.1 m/s
23:00 18.1° 1015.0 hPa 2.1 m/s 3.8 mm 20.4° 1013.0 hPa 6.3 m/s 48.0 mm 17.8° 1015.0 hPa 1.7 m/s 1.0 mm 19.1° 1016.1 hPa 1.7 m/s 0.0 mm 15.3° 1015.8 hPa 0.7 m/s
 05:20     21:53    Daglengte: 16:33 Morgen
02:00 16.2° 1014.8 hPa 2.0 m/s 20.0 mm 17.2° 1013.7 hPa 2.3 m/s 83.9 mm 16.1° 1014.8 hPa 2.0 m/s 3.5 mm 16.6° 1014.8 hPa 1.7 m/s 0.0 mm 15.1° 1016.0 hPa 0.9 m/s
05:00 16.1° 1014.1 hPa 2.0 m/s 13.8 mm 17.0° 1012.4 hPa 2.8 m/s 97.4 mm 16.0° 1014.4 hPa 1.6 m/s 0.4 mm 16.5° 1012.8 hPa 4.3 m/s 0.0 mm 15.0° 1015.1 hPa 0.8 m/s
08:00 16.6° 1014.2 hPa 2.2 m/s 0.0 mm 17.7° 1013.1 hPa 3.3 m/s 98.8 mm 16.5° 1014.9 hPa 1.4 m/s 0.0 mm 17.1° 1010.3 hPa 7.2 m/s 0.0 mm 15.6° 1015.6 hPa 1.2 m/s
11:00 17.5° 1015.2 hPa 2.7 m/s 0.0 mm 20.3° 1013.8 hPa 2.6 m/s 99.1 mm 19.6° 1016.1 hPa 2.5 m/s 0.0 mm 16.4° 1010.3 hPa 5.5 m/s 0.0 mm 20.1° 1016.4 hPa 3.6 m/s
14:00 19.4° 1016.0 hPa 2.8 m/s 0.0 mm 21.3° 1014.6 hPa 2.7 m/s 100.0 mm 21.6° 1016.4 hPa 2.2 m/s 0.0 mm 18.0° 1013.9 hPa 6.4 m/s 0.0 mm 21.7° 1017.0 hPa 4.2 m/s
17:00 20.4° 1016.6 hPa 1.8 m/s 0.0 mm 22.5° 1015.1 hPa 2.1 m/s 101.3 mm 21.4° 1016.8 hPa 1.6 m/s 0.0 mm 19.1° 1016.1 hPa 3.8 m/s 0.0 mm 21.6° 1018.0 hPa 3.5 m/s
20:00 19.5° 1017.8 hPa 2.3 m/s 0.0 mm 17.7° 1017.9 hPa 4.0 m/s 101.5 mm 20.7° 1017.7 hPa 1.9 m/s 0.0 mm 19.6° 1017.7 hPa 2.1 m/s 0.0 mm 18.7° 1019.0 hPa 1.2 m/s
23:00 16.5° 1019.6 hPa 1.0 m/s 11.8 mm 15.5° 1019.5 hPa 1.2 m/s 101.5 mm 18.4° 1019.2 hPa 1.1 m/s 0.0 mm 15.7° 1020.5 hPa 0.5 m/s
 05:21     21:53    Daglengte: 16:32 Dinsdag 28 Jun
02:00 14.8° 1020.2 hPa 1.5 m/s 0.0 mm 14.4° 1020.2 hPa 2.1 m/s 101.5 mm 15.9° 1019.9 hPa 1.1 m/s 0.0 mm 14.2° 1021.0 hPa 1.0 m/s
05:00 14.1° 1020.8 hPa 1.4 m/s 0.0 mm 14.1° 1020.3 hPa 2.9 m/s 101.5 mm 14.6° 1020.7 hPa 0.9 m/s 0.0 mm 13.1° 1021.5 hPa 1.6 m/s
08:00 16.4° 1021.4 hPa 0.7 m/s 0.0 mm 16.0° 1021.3 hPa 1.8 m/s 101.5 mm 16.5° 1021.4 hPa 0.4 m/s 0.0 mm 15.9° 1021.7 hPa 1.4 m/s
11:00 20.8° 1021.0 hPa 0.7 m/s 0.0 mm 19.9° 1021.3 hPa 1.4 m/s 101.5 mm 21.0° 1020.9 hPa 0.5 m/s 0.0 mm 21.6° 1021.5 hPa 1.7 m/s
14:00 23.9° 1019.2 hPa 1.4 m/s 0.0 mm 23.0° 1020.1 hPa 1.6 m/s 101.5 mm 24.1° 1018.9 hPa 1.3 m/s 0.0 mm 24.7° 1019.5 hPa 2.2 m/s
17:00 25.3° 1017.7 hPa 2.1 m/s 0.0 mm 24.8° 1018.3 hPa 1.2 m/s 101.5 mm 25.4° 1017.5 hPa 2.3 m/s 0.0 mm 25.9° 1017.9 hPa 2.1 m/s
20:00 24.4° 1016.5 hPa 2.7 m/s 0.0 mm 25.1° 1017.4 hPa 2.9 m/s 101.5 mm 24.2° 1016.2 hPa 2.6 m/s 0.0 mm 24.5° 1017.2 hPa 0.8 m/s
23:00 20.9° 1016.1 hPa 2.3 m/s 0.0 mm 21.8° 1017.4 hPa 2.8 m/s 101.5 mm 20.7° 1015.8 hPa 2.2 m/s 0.0 mm 19.3° 1017.5 hPa 1.9 m/s
 05:21     21:53    Daglengte: 16:32 Woensdag 29 Jun
02:00 18.9° 1015.2 hPa 2.8 m/s 0.0 mm 19.1° 1016.7 hPa 2.5 m/s 101.5 mm 18.9° 1014.8 hPa 2.9 m/s 0.0 mm 17.6° 1016.6 hPa 1.9 m/s
05:00 16.4° 1016.3 hPa 1.7 m/s 17.8 mm 16.4° 1016.3 hPa 1.7 m/s 17.8 mm
08:00 19.7° 1016.3 hPa 1.8 m/s 17.8 mm 19.7° 1016.3 hPa 1.8 m/s 17.8 mm
11:00 25.2° 1015.8 hPa 1.4 m/s 17.8 mm 25.2° 1015.8 hPa 1.4 m/s 17.8 mm
14:00 28.3° 1014.8 hPa 2.0 m/s 17.8 mm 28.3° 1014.8 hPa 2.0 m/s 17.8 mm
17:00 28.7° 1013.8 hPa 1.3 m/s 17.8 mm 28.7° 1013.8 hPa 1.3 m/s 17.8 mm
20:00 25.5° 1013.2 hPa 1.9 m/s 17.8 mm 25.5° 1013.2 hPa 1.9 m/s 17.8 mm
23:00 22.5° 1013.5 hPa 2.2 m/s 17.8 mm 22.5° 1013.5 hPa 2.2 m/s 17.8 mm
 05:22     21:53    Daglengte: 16:31 Donderdag 30 Jun
02:00 20.4° 1013.1 hPa 1.6 m/s 17.8 mm 20.4° 1013.1 hPa 1.6 m/s 17.8 mm
05:00 19.2° 1012.4 hPa 1.9 m/s 17.8 mm 19.2° 1012.4 hPa 1.9 m/s 17.8 mm
08:00 22.4° 1012.2 hPa 2.3 m/s 17.8 mm 22.4° 1012.2 hPa 2.3 m/s 17.8 mm
11:00 24.4° 1011.9 hPa 2.4 m/s 18.1 mm 24.4° 1011.9 hPa 2.4 m/s 18.1 mm
14:00 30.6° 1010.2 hPa 2.0 m/s 18.1 mm 30.6° 1010.2 hPa 2.0 m/s 18.1 mm
17:00 30.9° 1008.5 hPa 3.0 m/s 18.1 mm 30.9° 1008.5 hPa 3.0 m/s 18.1 mm
20:00 29.0° 1007.0 hPa 2.5 m/s 18.1 mm 29.0° 1007.0 hPa 2.5 m/s 18.1 mm
23:00 18.4° 1009.6 hPa 5.8 m/s 19.5 mm 18.4° 1009.6 hPa 5.8 m/s 19.5 mm
 05:22     21:53    Daglengte: 16:31 Vrijdag 01 Jul
02:00 18.5° 1009.2 hPa 2.6 m/s 21.3 mm 18.5° 1009.2 hPa 2.6 m/s 21.3 mm
05:00 17.1° 1009.6 hPa 2.0 m/s 23.4 mm 17.1° 1009.6 hPa 2.0 m/s 23.4 mm
08:00 16.5° 1012.1 hPa 5.3 m/s 25.3 mm 16.5° 1012.1 hPa 5.3 m/s 25.3 mm
11:00 17.4° 1014.5 hPa 4.7 m/s 25.6 mm 17.4° 1014.5 hPa 4.7 m/s 25.6 mm
14:00 21.0° 1014.9 hPa 4.2 m/s 25.7 mm 21.0° 1014.9 hPa 4.2 m/s 25.7 mm
17:00 20.6° 1015.2 hPa 3.5 m/s 25.7 mm 20.6° 1015.2 hPa 3.5 m/s 25.7 mm
20:00 20.0° 1016.2 hPa 2.7 m/s 25.7 mm 20.0° 1016.2 hPa 2.7 m/s 25.7 mm
23:00 16.5° 1017.6 hPa 2.5 m/s 25.7 mm 16.5° 1017.6 hPa 2.5 m/s 25.7 mm
 05:23     21:52    Daglengte: 16:29 Zaterdag 02 Jul
02:00 14.6° 1018.8 hPa 2.1 m/s 25.7 mm 14.6° 1018.8 hPa 2.1 m/s 25.7 mm
05:00 14.0° 1019.8 hPa 3.6 m/s 25.7 mm 14.0° 1019.8 hPa 3.6 m/s 25.7 mm
08:00 15.8° 1020.5 hPa 4.4 m/s 25.7 mm 15.8° 1020.5 hPa 4.4 m/s 25.7 mm
11:00 20.0° 1020.3 hPa 5.4 m/s 25.7 mm 20.0° 1020.3 hPa 5.4 m/s 25.7 mm
14:00 23.1° 1019.8 hPa 5.2 m/s 25.7 mm 23.1° 1019.8 hPa 5.2 m/s 25.7 mm
17:00 23.6° 1019.2 hPa 4.4 m/s 25.7 mm 23.6° 1019.2 hPa 4.4 m/s 25.7 mm
20:00 21.2° 1019.0 hPa 2.1 m/s 25.7 mm 21.2° 1019.0 hPa 2.1 m/s 25.7 mm
23:00 17.7° 1019.4 hPa 1.2 m/s 25.7 mm 17.7° 1019.4 hPa 1.2 m/s 25.7 mm
 05:24     21:52    Daglengte: 16:28 Zondag 03 Jul
02:00 18.2° 1018.8 hPa 1.5 m/s 25.7 mm 18.2° 1018.8 hPa 1.5 m/s 25.7 mm
08:00 17.4° 1018.5 hPa 2.6 m/s 25.7 mm 17.4° 1018.5 hPa 2.6 m/s 25.7 mm
14:00 24.1° 1017.8 hPa 5.2 m/s 25.7 mm 24.1° 1017.8 hPa 5.2 m/s 25.7 mm
20:00 20.7° 1017.8 hPa 4.0 m/s 25.7 mm 20.7° 1017.8 hPa 4.0 m/s 25.7 mm
 05:25     21:51    Daglengte: 16:26 Maandag 04 Jul
02:00 14.1° 1019.5 hPa 1.6 m/s 25.7 mm 14.1° 1019.5 hPa 1.6 m/s 25.7 mm
08:00 15.6° 1020.0 hPa 2.9 m/s 25.7 mm 15.6° 1020.0 hPa 2.9 m/s 25.7 mm
14:00 21.3° 1020.7 hPa 4.3 m/s 26.1 mm 21.3° 1020.7 hPa 4.3 m/s 26.1 mm
20:00 19.1° 1021.7 hPa 3.7 m/s 26.2 mm 19.1° 1021.7 hPa 3.7 m/s 26.2 mm
 05:26     21:51    Daglengte: 16:25 Dinsdag 05 Jul
02:00 12.3° 1024.1 hPa 1.4 m/s 26.2 mm 12.3° 1024.1 hPa 1.4 m/s 26.2 mm
08:00 14.7° 1024.7 hPa 1.4 m/s 26.2 mm 14.7° 1024.7 hPa 1.4 m/s 26.2 mm
14:00 21.5° 1023.9 hPa 3.1 m/s 26.2 mm 21.5° 1023.9 hPa 3.1 m/s 26.2 mm
20:00 20.0° 1023.1 hPa 2.5 m/s 26.4 mm 20.0° 1023.1 hPa 2.5 m/s 26.4 mm
 05:26     21:50    Daglengte: 16:24 Woensdag 06 Jul
02:00 15.8° 1019.6 hPa 1.2 m/s 0.1 mm
08:00 16.9° 1019.1 hPa 0.5 m/s 0.4 mm
14:00 24.6° 1018.2 hPa 1.3 m/s 0.3 mm
20:00 22.8° 1017.5 hPa 1.5 m/s 0.5 mm
 05:27     21:50    Daglengte: 16:23 Donderdag 07 Jul
02:00 16.7° 1018.3 hPa 0.6 m/s 0.6 mm
08:00 17.3° 1018.4 hPa 1.9 m/s 0.2 mm
14:00 24.2° 1018.1 hPa 2.5 m/s 0.6 mm
20:00 22.4° 1017.7 hPa 2.3 m/s 0.7 mm
 05:28     21:49    Daglengte: 16:21 Vrijdag 08 Jul
02:00 16.4° 1018.7 hPa 0.6 m/s 0.3 mm
08:00 17.3° 1018.6 hPa 1.4 m/s 0.4 mm
14:00 24.2° 1017.7 hPa 2.7 m/s 0.3 mm
20:00 22.2° 1017.3 hPa 2.4 m/s 0.8 mm
 05:29     21:48    Daglengte: 16:19 Zaterdag 09 Jul
02:00 15.6° 1018.3 hPa 0.8 m/s 0.3 mm
08:00 16.6° 1018.0 hPa 1.8 m/s 0.1 mm
14:00 23.5° 1016.8 hPa 2.6 m/s 0.4 mm
20:00 22.3° 1016.0 hPa 1.9 m/s 0.5 mm
 05:30     21:48    Daglengte: 16:18 Zondag 10 Jul
02:00 16.0° 1016.5 hPa 1.0 m/s 0.6 mm
08:00 16.7° 1016.2 hPa 2.1 m/s 0.6 mm
14:00 22.9° 1015.9 hPa 3.0 m/s 0.7 mm
20:00 21.3° 1016.2 hPa 2.8 m/s 0.8 mm
 05:31     21:47    Daglengte: 16:16 Maandag 11 Jul
02:00 15.2° 1017.6 hPa 1.3 m/s 0.2 mm
FMI Hirlam - 7.5 km EWN WRFDA - 12 km DWD ICON - 7 km GFS - 25 km Basiskaart






























































Updatetijd (Europe/Amsterdam) Resolutie Lengte Stap
FMI Hirlam 01:45, 07:45, 13:45, 19:45 7.5 km 49h 1h
EWN WRFDA 22:30, 04:30, 10:30, 16:30 12 km 73h 1h
DWD ICON 23:45, 05:45, 11:45, 17:45 7 km 75h 1h
GFS 02:15, 08:15, 14:15, 20:15 25 km 237h 3h
30+ mm
25-30 mm
20-25 mm
15-20 mm
10-15 mm
6-10 mm
4-6 mm
2-4 mm
1-2 mm
0.5-1 mm
0.2-0.5 mm
0.1-0.2 mm
30+ mm
25-30 mm
20-25 mm
15-20 mm
10-15 mm
6-10 mm
4-6 mm
2-4 mm
1-2 mm
0.5-1 mm
0.2-0.5 mm
0.1-0.2 mm
Sneeuwval
Natte sneeuw
Hagel
Vorst
30+ mm
25-30 mm
20-25 mm
15-20 mm
10-15 mm
6-10 mm
4-6 mm
2-4 mm
1-2 mm
0.5-1 mm
0.2-0.5 mm
0.1-0.2 mm
Sneeuwval
Natte sneeuw
Hagel
Vorst
Onweer
50 mm
40 mm
30 mm
26 mm
22 mm
18 mm
14 mm
10 mm
9 mm
8 mm
7 mm
6 mm
5 mm
4.5 mm
4 mm
3.5 mm
3 mm
2.5 mm
2 mm
1.5 mm
1 mm
0.8 mm
0.6 mm
0.4 mm
0.2 mm
0.05 mm
35°
30°
25°
20°
15°
10°
-5°
-10°
-15°
-20°
-25°
-30°
-35°
33> m/s
29 m/s
25 m/s
21 m/s
17 m/s
14 m/s
11 m/s
8 m/s
5 m/s
3 m/s
0 m/s
2600 J/kg
2400 J/kg
2200 J/kg
2000 J/kg
1800 J/kg
1600 J/kg
1400 J/kg
1200 J/kg
1000 J/kg
800 J/kg
600 J/kg
400 J/kg
200 J/kg
70 dBZ
65 dBZ
60 dBZ
55 dBZ
50 dBZ
45 dBZ
40 dBZ
35 dBZ
30 dBZ
25 dBZ
20 dBZ
15 dBZ
10 dBZ
5 dBZ
-1 K
-2 K
-3 K
-4 K
-5 K
-6 K
-7 K
-8 K
-9 K
950 m²/s²
900 m²/s²
850 m²/s²
800 m²/s²
750 m²/s²
700 m²/s²
650 m²/s²
600 m²/s²
550 m²/s²
500 m²/s²
450 m²/s²
400 m²/s²
350 m²/s²
300 m²/s²
250 m²/s²
200 m²/s²
150 m²/s²
100 m²/s²
46 m/s
44 m/s
42 m/s
40 m/s
38 m/s
36 m/s
34 m/s
32 m/s
30 m/s
28 m/s
26 m/s
24 m/s
22 m/s
20 m/s
16 m/s
12 m/s
8 m/s
4 m/s
30 m/s
28 m/s
26 m/s
24 m/s
22 m/s
20 m/s
18 m/s
16 m/s
14 m/s
12 m/s
10 m/s
8 m/s
6 m/s
4 m/s
2 m/s
3.0
2.8
2.6
2.4
2.2
2.0
1.8
1.6
1.4
1.2
1.0
0.8
0.6
0.4
0.2
15
14
13
12
11
10
9
8